[[{"header":{"parameterUnit":"m.s-1","parameterCategory":1,"la1":30.2991,"la2":30.254,"lo1":-89.0895,"lo2":-89.0444,"dy":0.0017,"dx":0.0017,"nx":28,"ny":28,"refTime":"2025-03-05T03:00:00:Z","depth":0,"parameterNumber":2,"parameterNumberName":"U-component_of_WINDS"},"data":[0,0,0,0,0,0,0,0,0,0,0,0,0,0,0,0,0,0,0,0,0,0,0,0,0,0,0,0,0,0,0,0,0,0,0,0,0,0,0,0,0,0,0,0,0,0,0,0,0,0,0,0,0,0,0,0,0,0,7.1202,7.1202,0,7.1222,7.1222,7.1222,7.1088,7.1084,7.1081,7.1077,7.11,7.1104,7.1108,0,0,0,0,0,0,0,0,0,0,0,0,0,7.1049,7.1052,7.1202,7.1202,7.1202,7.1222,7.1222,7.1222,7.1089,7.1084,7.108,7.1075,7.1098,7.1103,7.1108,0,0,0,0,0,0,0,0,0,0,0,0,0,7.1097,7.1054,7.1202,7.1138,7.1132,7.1222,7.1222,7.1222,7.109,7.1084,7.1078,7.1073,7.1097,7.1103,7.1109,7.1261,0,0,7.1128,7.113,0,0,0,0,0,0,0,0,7.1094,7.1103,7.1147,7.1142,7.1136,7.1147,7.1176,7.1235,7.1091,7.1106,7.1077,7.107,7.112,7.1124,7.114,7.1262,7.1263,7.1128,7.1132,7.1135,7.1136,0,0,0,0,0,0,0,7.1091,7.1101,7.121,7.1148,7.1141,7.1109,7.1109,7.1187,7.1145,7.1104,7.1095,7.1099,7.1116,7.1135,7.114,7.1263,7.1128,7.1134,7.1137,7.114,7.151,7.1515,0,0,0,0,0,0,7.1096,7.1099,7.1209,7.121,7.1101,7.1116,7.1117,7.1149,7.1143,7.1137,7.1104,7.1092,7.1127,7.1133,7.114,7.1316,7.1135,7.114,7.1144,7.1504,7.1511,7.1518,0,0,0,0,0,0,7.1094,7.1107,7.1208,7.1152,7.1162,7.1125,7.1162,7.1153,7.1171,7.1143,7.1135,7.113,7.1122,7.1131,7.1231,7.1315,7.1143,7.1149,7.1496,7.1506,7.1514,7.1672,0,0,0,0,0,0,7.109,7.1107,7.1164,7.1154,7.1166,7.1299,7.1168,7.1157,7.1182,7.1167,7.1166,7.116,7.1119,7.1223,7.1238,7.1321,7.1154,7.1489,7.1501,7.1511,7.1659,7.1685,7.1708,0,0,0,0,0,7.1085,7.1208,7.1168,7.1182,7.1236,7.1304,7.1311,7.126,7.1189,7.1246,7.1228,7.116,7.1304,7.1234,7.125,7.1336,7.1483,7.1497,7.151,7.1648,7.168,7.1707,0,0,0,0,0,0,7.123,7.1206,7.1161,7.1285,7.1298,7.1282,7.1352,7.1296,7.133,7.1315,7.1251,7.1252,7.1363,7.136,7.1282,7.1482,7.1381,7.1399,7.148,7.1511,7.1534,7.1532,7.1159,0,0,0,0,0,7.1276,7.1333,7.1309,7.1421,7.143,7.139,7.1418,7.1378,7.1389,7.1394,7.1383,7.1397,7.1444,7.1478,7.152,7.1658,7.1655,7.1725,7.175,7.177,7.1785,7.1857,7.1887,7.1563,7.1562,7.1562,0,0,7.1372,7.1366,7.1406,7.145,7.1455,7.1515,7.1396,7.1465,7.1509,7.1404,7.1497,7.1491,7.1501,7.1621,7.1673,7.1621,7.1874,7.1787,7.1804,7.1808,7.1874,7.1905,7.1932,7.1572,7.157,7.1569,0,0,7.1578,7.158,7.1672,7.168,7.1689,7.1662,7.1685,7.1678,7.1669,7.1761,7.1684,7.1736,7.182,7.1831,7.1847,7.2058,7.1996,7.2074,7.2201,7.2271,7.2297,7.2319,7.2393,7.242,7.209,7.209,7.2091,0,7.1696,7.1784,7.1727,7.1801,7.1823,7.1731,7.1824,7.1834,7.1858,7.1875,7.1817,7.192,7.1921,7.2041,7.2093,7.211,7.2133,7.2073,7.2298,7.232,7.234,7.2409,7.2437,7.21,7.2098,7.2098,7.2097,0,7.1928,7.199,7.2064,7.2088,7.2118,7.2202,7.2158,7.2195,7.2153,7.2132,7.2228,7.2226,7.2266,7.2292,7.2252,7.2407,7.2374,7.2309,7.2205,7.2381,7.2445,7.2471,7.2113,7.2109,7.2107,7.2104,0,0,7.2224,7.2216,7.2244,7.2254,7.2257,7.2304,7.2384,7.2423,7.2455,7.2475,7.2539,7.2613,7.2552,7.2571,7.2531,7.2594,7.2759,7.252,7.2519,7.2563,7.2928,7.2976,7.3008,7.2719,7.2724,7.2728,7.2926,0,7.2424,7.2558,7.251,7.2648,7.2704,7.2618,7.2687,7.2697,7.268,7.2725,7.2707,7.276,7.2676,7.2686,7.2744,7.2727,7.2831,7.2712,7.2778,7.2781,7.2775,7.3041,7.3093,7.328,7.2951,7.2955,7.2958,0,7.2674,7.2703,7.2846,7.284,7.2861,7.2924,7.2956,7.3,7.301,7.2993,7.3015,7.2962,7.304,7.2938,7.3044,7.2964,7.2988,7.2984,7.299,7.2992,7.2879,7.305,7.3339,7.3366,7.2998,7.2995,7.2992,0,7.2874,7.2949,7.3044,7.3055,7.305,7.3096,7.3096,7.31,7.3127,7.3155,7.3171,7.3209,7.3229,7.3259,7.3217,7.3147,7.3329,7.3224,7.3316,7.3318,7.3357,7.3355,7.3652,7.3376,7.3376,7.3375,7.3375,0,7.3101,7.3191,7.3133,7.3191,7.329,7.3235,7.3334,7.3325,7.3329,7.3384,7.3313,7.3366,7.3309,7.3357,7.3325,7.3417,7.3427,7.3415,7.3405,7.3421,7.3422,7.3434,7.3419,7.3383,7.3381,7.338,7.3378,0,7.334,7.3304,7.3402,7.339,7.3389,7.3462,7.3451,7.3505,7.3483,7.3553,7.3567,7.3533,7.3586,7.3548,7.3601,7.3579,7.3699,7.3672,7.3696,7.3687,7.3781,7.3773,7.4096,7.4135,7.3836,7.3839,7.3842,0,7.3485,7.3553,7.3548,7.3579,7.3584,7.3636,7.3662,7.3611,7.3641,7.3657,7.3709,7.3755,7.3789,7.3878,7.3858,7.3898,7.387,7.3981,7.3875,7.3888,7.3869,7.3865,7.3871,7.4001,7.4005,7.4008,7.401,0,7.3748,7.3727,7.3767,7.3802,7.3836,7.3861,7.388,7.391,7.3858,7.3896,7.3948,7.3975,7.4028,7.4075,7.4108,7.4108,7.4051,7.4044,7.4067,7.4082,7.4092,7.4086,7.3751,7.4036,7.4033,7.4031,7.403,7.4029,7.3943,7.3998,7.4003,7.4051,7.406,7.408,7.4129,7.4114,7.4156,7.4195,7.4163,7.4226,7.4233,7.4271,7.4279,7.4327,7.4282,7.4316,7.4324,7.4333,7.4345,7.4086,7.4333,7.4332,7.4332,7.4331,7.433,0,7.42,7.4199,7.4243,7.4272,7.431,7.4253,7.4271,7.4306,7.4362,7.4374,7.4409,7.447,7.4515,7.4499,7.4539,7.4581,7.4555,7.4593,7.4588,7.4589,7.4384,7.4359,7.4613,7.4613,7.4612,7.4612,7.4612,7.4612,7.4337,7.4428,7.4408,7.4502,7.4501,7.4561,7.4577,7.4594,7.4604,7.4674,7.4711,7.47,7.4701,7.4741,7.4779,7.4774,7.4791,7.4838,7.4822,7.4631,7.4603,7.4577,7.4553,7.4842,7.4843,7.5022,7.5024,7.5025]},{"header":{"parameterUnit":"m.s-1","parameterCategory":1,"la1":30.2991,"la2":30.254,"lo1":-89.0895,"lo2":-89.0444,"dy":0.0017,"dx":0.0017,"nx":28,"ny":28,"refTime":"2025-03-05T03:00:00:Z","depth":0,"parameterNumber":3,"parameterNumberName":"V-component_of_WINDS"},"data":[0,0,0,0,0,0,0,0,0,0,0,0,0,0,0,0,0,0,0,0,0,0,0,0,0,0,0,0,0,0,0,0,0,0,0,0,0,0,0,0,0,0,0,0,0,0,0,0,0,0,0,0,0,0,0,0,0,0,3.3116,3.3117,0,3.3246,3.3247,3.3249,3.3239,3.3237,3.3235,3.3233,3.3367,3.3372,3.3377,0,0,0,0,0,0,0,0,0,0,0,0,0,3.2859,3.2864,3.3116,3.3117,3.3119,3.3246,3.3247,3.3249,3.3239,3.3237,3.3235,3.3232,3.3365,3.3371,3.3378,0,0,0,0,0,0,0,0,0,0,0,0,0,3.2978,3.2865,3.3115,3.3129,3.3132,3.3245,3.3247,3.325,3.324,3.3237,3.3234,3.3231,3.3363,3.3371,3.3379,3.3487,0,0,3.3403,3.3407,0,0,0,0,0,0,0,0,3.2971,3.2987,3.3126,3.3129,3.3132,3.3223,3.3206,3.3329,3.3241,3.3199,3.3233,3.323,3.3321,3.3333,3.3364,3.3493,3.3499,3.3404,3.3409,3.3412,3.3415,0,0,0,0,0,0,0,3.2963,3.2982,3.3167,3.3128,3.3131,3.3129,3.3143,3.3229,3.3275,3.3202,3.3202,3.3217,3.3323,3.3356,3.3367,3.3501,3.3404,3.3411,3.3416,3.3419,3.3726,3.3729,0,0,0,0,0,0,3.2951,3.2975,3.3163,3.3171,3.3042,3.3136,3.3151,3.3197,3.3274,3.3283,3.322,3.3216,3.3344,3.3357,3.3371,3.3503,3.3412,3.342,3.3425,3.3722,3.3726,3.373,0,0,0,0,0,0,3.2946,3.2968,3.3158,3.3073,3.3097,3.3144,3.3195,3.3201,3.3234,3.3287,3.3295,3.3245,3.3342,3.336,3.3458,3.3508,3.3424,3.3431,3.3719,3.3724,3.3728,3.3768,0,0,0,0,0,0,3.2939,3.2966,3.3008,3.3074,3.3101,3.3243,3.3198,3.3205,3.3248,3.3245,3.3313,3.3322,3.3341,3.3446,3.3466,3.3517,3.3437,3.3714,3.3721,3.3727,3.3763,3.3774,3.3783,0,0,0,0,0,3.2929,3.3014,3.301,3.3033,3.3154,3.3246,3.3261,3.3281,3.3252,3.3294,3.3328,3.332,3.3499,3.3456,3.3479,3.3533,3.3711,3.3719,3.3726,3.3758,3.3772,3.3783,0,0,0,0,0,0,3.2953,3.3023,3.3019,3.3128,3.3181,3.3244,3.3298,3.3295,3.3358,3.3352,3.3374,3.339,3.3489,3.3521,3.3472,3.3642,3.3601,3.3614,3.3618,3.3631,3.3641,3.3632,3.3444,0,0,0,0,0,3.2971,3.3039,3.3096,3.3187,3.3213,3.3251,3.3291,3.3302,3.3358,3.338,3.3421,3.3476,3.3545,3.3589,3.3655,3.3767,3.3782,3.3815,3.3825,3.3834,3.3844,3.3906,3.3922,3.3754,3.3754,3.3754,0,0,3.3008,3.3055,3.3097,3.3192,3.3235,3.3305,3.327,3.3346,3.3398,3.3392,3.3487,3.3519,3.3582,3.3687,3.3735,3.3717,3.3894,3.3843,3.3849,3.3856,3.3915,3.3931,3.3945,3.376,3.3759,3.3758,0,0,3.3113,3.3155,3.3235,3.3278,3.3342,3.3367,3.3386,3.3449,3.347,3.3566,3.3563,3.3625,3.3743,3.3788,3.3826,3.3946,3.3941,3.3967,3.4022,3.4082,3.4095,3.4107,3.4151,3.4166,3.3977,3.3978,3.3978,0,3.3152,3.3258,3.3276,3.3353,3.3395,3.3392,3.3473,3.3514,3.3597,3.3626,3.3604,3.3751,3.3793,3.3909,3.3938,3.3969,3.3992,3.396,3.4092,3.4104,3.4115,3.4157,3.4173,3.398,3.398,3.398,3.3979,0,3.3302,3.3376,3.3432,3.3512,3.3561,3.3639,3.367,3.3717,3.3723,3.375,3.3847,3.3897,3.3973,3.4001,3.4008,3.4118,3.4105,3.4087,3.4046,3.4133,3.4173,3.4189,3.3984,3.3983,3.3983,3.3982,0,0,3.3427,3.3515,3.3536,3.3572,3.3643,3.37,3.3778,3.3852,3.3892,3.3949,3.4015,3.4115,3.4098,3.4141,3.4153,3.4205,3.4299,3.4181,3.4183,3.4202,3.4424,3.4438,3.4456,3.4295,3.4298,3.43,3.4419,0,3.3539,3.3678,3.3697,3.382,3.3888,3.3885,3.3954,3.4004,3.4031,3.4093,3.4122,3.4192,3.4165,3.4191,3.4243,3.4276,3.4344,3.4268,3.4357,3.436,3.4343,3.4477,3.4492,3.4601,3.4434,3.4437,3.4439,0,3.3689,3.375,3.388,3.3941,3.397,3.4031,3.4101,3.416,3.4217,3.4232,3.428,3.4285,3.4366,3.4322,3.4434,3.4382,3.4419,3.4441,3.4446,3.4456,3.4406,3.4491,3.4636,3.4653,3.4464,3.4462,3.446,0,3.3768,3.3882,3.3975,3.4006,3.4079,3.4122,3.4155,3.4209,3.4252,3.4313,3.4341,3.441,3.4449,3.4502,3.4526,3.4491,3.4636,3.4594,3.4652,3.4652,3.4684,3.4682,3.4838,3.4706,3.4706,3.4706,3.4705,0,3.3892,3.3972,3.4011,3.4068,3.4157,3.4178,3.4265,3.4296,3.4345,3.4408,3.4409,3.4468,3.4495,3.4559,3.4577,3.4668,3.4684,3.47,3.4704,3.4701,3.4699,3.4726,3.472,3.471,3.4709,3.4708,3.4708,0,3.3996,3.4025,3.4126,3.4187,3.4204,3.4267,3.4319,3.4375,3.44,3.448,3.45,3.4541,3.4615,3.4644,3.4734,3.4747,3.4852,3.4849,3.4832,3.4834,3.4891,3.4886,3.5072,3.5097,3.4947,3.4949,3.495,0,3.4074,3.4135,3.4202,3.4245,3.4279,3.4347,3.4391,3.4413,3.4459,3.4529,3.4576,3.465,3.4711,3.483,3.4868,3.4937,3.4937,3.4997,3.4947,3.4942,3.4939,3.4936,3.4942,3.5007,3.5008,3.501,3.5011,0,3.4209,3.422,3.4284,3.4353,3.4406,3.4462,3.4515,3.455,3.458,3.4632,3.4708,3.4755,3.4848,3.4922,3.4993,3.5026,3.5024,3.5026,3.5043,3.5041,3.5029,3.5037,3.4859,3.5022,3.5021,3.502,3.5019,3.5019,3.4303,3.4357,3.4413,3.4484,3.4527,3.4577,3.4632,3.4665,3.4729,3.4806,3.4815,3.4897,3.4952,3.5048,3.5084,3.5149,3.5133,3.5158,3.5164,3.5171,3.5175,3.5018,3.5162,3.5161,3.5161,3.5161,3.5161,0,3.4439,3.4475,3.454,3.4615,3.4671,3.4663,3.4722,3.477,3.4842,3.4894,3.4953,3.5041,3.5112,3.5155,3.5227,3.527,3.5271,3.5289,3.5286,3.5294,3.5185,3.5163,3.5287,3.5287,3.5287,3.5287,3.5287,3.5287,3.4517,3.4609,3.4627,3.474,3.4775,3.4855,3.489,3.4936,3.4978,3.5075,3.5135,3.5162,3.5211,3.5286,3.5351,3.5362,3.5389,3.5408,3.5417,3.5315,3.5302,3.5289,3.5269,3.5413,3.5413,3.5521,3.5522,3.5523]}]]